[[{"header":{"parameterUnit":"m.s-1","parameterCategory":1,"la1":30.2992,"la2":30.254,"lo1":-89.0895,"lo2":-89.0443,"dy":0.0025,"dx":0.0025,"nx":19,"ny":19,"refTime":"2026-05-15T03:00:00:Z","depth":0,"parameterNumber":2,"parameterNumberName":"U-component_of_WINDS"},"data":[0,0,0,-3.1714,-3.1714,-3.1725,-3.1725,-3.1755,-3.1755,0,0,0,0,0,0,0,0,0,0,0,-3.1719,-3.172,-3.1714,-3.1714,-3.1725,-3.1725,-3.1754,-3.1755,0,0,0,0,0,0,0,0,0,0,0,-3.1719,-3.172,-3.172,-3.1715,-3.1725,-3.1725,-3.1754,-3.1741,0,0,0,0,0,0,0,0,0,0,-3.1728,-3.1741,-3.172,-3.172,-3.1715,-3.1725,-3.1725,-3.174,-3.1742,-3.1756,0,-3.177,0,-3.1763,-3.1758,-3.1758,0,0,0,-3.1708,-3.1739,-3.1735,-3.172,-3.1715,-3.1725,-3.1719,-3.1741,-3.1743,-3.1759,-3.1771,-3.1771,-3.1764,-3.1758,-3.1758,-3.1861,-3.1862,0,0,-3.1708,-3.1726,-3.1733,-3.1736,-3.1735,-3.1718,-3.1719,-3.1742,-3.1756,-3.1771,-3.1772,-3.1764,-3.1758,-3.1759,-3.186,-3.1861,0,0,0,-3.171,-3.1726,-3.172,-3.1736,-3.1736,-3.1719,-3.172,-3.1755,-3.1752,-3.1772,-3.1765,-3.1759,-3.1759,-3.1859,-3.1861,-3.1915,0,0,0,-3.1709,-3.1727,-3.172,-3.1731,-3.1736,-3.1746,-3.1733,-3.175,-3.1752,-3.1765,-3.1759,-3.176,-3.1859,-3.186,-3.1912,-3.1937,0,0,0,-3.1716,-3.1728,-3.1732,-3.1732,-3.1738,-3.1745,-3.1743,-3.175,-3.1748,-3.1758,-3.176,-3.1858,-3.186,-3.1909,-3.1932,-3.1968,0,0,0,-3.1728,-3.178,-3.1733,-3.179,-3.1738,-3.1779,-3.1742,-3.1772,-3.1787,-3.1759,-3.1859,-3.1861,-3.1908,-3.1929,-3.1965,-3.2,-3.2017,0,0,-3.1804,-3.179,-3.1822,-3.178,-3.1835,-3.1776,-3.1839,-3.1835,-3.1821,-3.1849,-3.1851,-3.1913,-3.1931,-3.1968,-3.211,-3.2124,0,0,0,-3.1853,-3.1876,-3.1886,-3.1901,-3.1901,-3.1902,-3.1888,-3.1887,-3.191,-3.1839,-3.1936,-3.1947,-3.1968,-3.1983,-3.1995,-3.2011,-3.1869,-3.1869,-3.1869,-3.1985,-3.1963,-3.2015,-3.1995,-3.2011,-3.1997,-3.2008,-3.2004,-3.1978,-3.2002,-3.2009,-3.2098,-3.2117,-3.2126,-3.2143,-3.2028,-3.2028,-3.2028,-3.2029,-3.2094,-3.2122,-3.2088,-3.2125,-3.2103,-3.2134,-3.2124,-3.2105,-3.2131,-3.209,-3.2107,-3.2062,-3.2141,-3.2155,-3.2032,-3.2032,-3.2031,-3.2031,-3.2031,-3.2176,-3.2185,-3.2185,-3.2205,-3.2225,-3.2204,-3.2232,-3.2211,-3.2192,-3.2209,-3.2214,-3.2213,-3.2208,-3.2213,-3.2214,-3.2214,-3.2214,-3.2215,-3.2215,-3.226,-3.2257,-3.2282,-3.2288,-3.2296,-3.2304,-3.2293,-3.23,-3.2303,-3.2286,-3.2286,-3.2257,-3.2154,-3.2127,-3.2219,-3.2218,-3.2218,-3.2217,-3.2217,-3.2373,-3.2345,-3.2383,-3.2391,-3.2397,-3.2418,-3.2393,-3.2411,-3.2414,-3.2429,-3.2398,-3.2326,-3.2309,-3.23,-3.2277,-3.2403,-3.2403,-3.2403,-3.2403,-3.244,-3.2432,-3.2467,-3.2481,-3.2493,-3.2475,-3.2521,-3.2514,-3.2503,-3.2504,-3.2484,-3.2453,-3.2445,-3.2434,-3.2421,-3.24,-3.2554,-3.2554,-3.2554,-3.2509,-3.25,-3.2541,-3.253,-3.2534,-3.2538,-3.2581,-3.26,-3.2581,-3.256,-3.2504,-3.2498,-3.2449,-3.2434,-3.2407,-3.2389,-3.2349,0,0]},{"header":{"parameterUnit":"m.s-1","parameterCategory":1,"la1":30.2992,"la2":30.254,"lo1":-89.0895,"lo2":-89.0443,"dy":0.0025,"dx":0.0025,"nx":19,"ny":19,"refTime":"2026-05-15T03:00:00:Z","depth":0,"parameterNumber":3,"parameterNumberName":"V-component_of_WINDS"},"data":[0,0,0,3.5132,3.5133,3.5156,3.5156,3.5177,3.5177,0,0,0,0,0,0,0,0,0,0,0,3.5121,3.5121,3.5132,3.5133,3.5156,3.5156,3.5177,3.5177,0,0,0,0,0,0,0,0,0,0,0,3.5121,3.5121,3.5122,3.5133,3.5156,3.5156,3.5177,3.5162,0,0,0,0,0,0,0,0,0,0,3.5141,3.5127,3.5121,3.5122,3.5133,3.5156,3.5156,3.5161,3.5163,3.5163,0,3.5163,0,3.517,3.5178,3.5178,0,0,0,3.5135,3.5126,3.5136,3.5122,3.5133,3.5155,3.5146,3.5162,3.5164,3.5165,3.5163,3.5164,3.5171,3.5178,3.5178,3.5173,3.5172,0,0,3.5134,3.5123,3.5135,3.5137,3.5134,3.5145,3.5147,3.5163,3.516,3.5163,3.5165,3.5171,3.5178,3.5178,3.5173,3.5173,0,0,0,3.5129,3.5122,3.5132,3.5136,3.5141,3.5146,3.5148,3.516,3.5164,3.5165,3.5171,3.5178,3.5178,3.5173,3.5173,3.5155,0,0,0,3.5128,3.5119,3.5131,3.5124,3.514,3.5151,3.5143,3.5163,3.5165,3.5171,3.5178,3.5178,3.5173,3.5173,3.5156,3.5148,0,0,0,3.5121,3.5118,3.512,3.5124,3.5134,3.5151,3.5156,3.5164,3.5169,3.5178,3.5178,3.5173,3.5173,3.5157,3.515,3.5144,0,0,0,3.511,3.5103,3.512,3.5114,3.5133,3.514,3.5156,3.5161,3.5167,3.5178,3.5173,3.5173,3.5157,3.515,3.5145,3.5137,3.5133,0,0,3.5095,3.5101,3.5099,3.5114,3.5115,3.5138,3.5136,3.5151,3.5161,3.5168,3.5168,3.5156,3.515,3.5144,3.5115,3.5111,0,0,0,3.509,3.5088,3.5091,3.5097,3.5109,3.5119,3.5136,3.5141,3.5148,3.5163,3.5153,3.5149,3.5146,3.5143,3.5141,3.5139,3.5171,3.5171,3.5171,3.5052,3.5067,3.5064,3.5082,3.5087,3.5105,3.511,3.5121,3.5133,3.5131,3.5133,3.5113,3.5109,3.5107,3.5105,3.513,3.513,3.513,3.513,3.503,3.503,3.5049,3.5052,3.5068,3.5071,3.5088,3.5097,3.5101,3.5113,3.5111,3.5122,3.5103,3.5102,3.5129,3.5129,3.5129,3.5129,3.5129,3.5007,3.501,3.5018,3.5028,3.5035,3.5053,3.5057,3.507,3.5083,3.5081,3.5085,3.5085,3.5087,3.5082,3.5082,3.5082,3.5082,3.5082,3.5082,3.4979,3.4989,3.4992,3.5005,3.5011,3.502,3.5039,3.5045,3.5055,3.5064,3.5064,3.5077,3.5099,3.5104,3.5081,3.5081,3.5081,3.5081,3.5081,3.4952,3.4961,3.4964,3.4971,3.4988,3.4993,3.5011,3.5022,3.5029,3.503,3.5043,3.5057,3.5064,3.5066,3.5071,3.504,3.504,3.504,3.504,3.4932,3.4938,3.4945,3.4954,3.4964,3.4981,3.4984,3.4998,3.5014,3.5019,3.5025,3.5032,3.5034,3.504,3.5043,3.5047,3.5011,3.5011,3.5011,3.4917,3.4924,3.4924,3.4941,3.4956,3.4968,3.4971,3.498,3.4999,3.501,3.5023,3.5025,3.5036,3.5039,3.505,3.5054,3.5062,0,0]}]]